www.pogodaiklimat.ru

Погода и климат >> Архив погоды >> Аргентина >> La Plata


ПОГОДА в La Plata

  • Прогноз погоды в La Plata
  • Монитор погоды в La Plata
  • Климат города

АРХИВ ПОГОДЫ в La Plata

Время (UTC), дата Ветер
(напр.,м/с)
 
Видим.   Явления Облачность Т
(С)
Тd
(С)
f
(%)
Тe
(С)
Тes
(С)
Комфортность P
(гПа)
Po
(гПа)
Тmin
(С)
Tmax
(С)
R
(мм)
R24
(мм)
S
(см)
18 18.05 В 5 10 км {дождь} 10/4 240 м
[St As op]
+18.2 +16.0 87 +18 +19 1010.6 1007.8 4
21 18.05 В 5 10 км 9/5 240 м
[St Ac As]
+17.6 +15.9 90 +17 +17 1009.3 1006.6
00 19.05 В 4 8000 м слабая морось 10/8 270 м
[St Ac As]
+17.0 +16.0 94 +17 +17 1008.8 1006.1 +15.5 +18.2 0.0
03 19.05 В 10 10 км в посл. час гроза 10/8 180 м
[St Ac As]
+17.8 +16.5 92 +17 +17 1006.9 1004.2
06 19.05 В 5 10 км {гроза} 10/8 180 м
[St Ac As]
+17.7 +16.0 90 +17 +17 1005.6 1002.9 5
09 19.05 В 9 7000 м в посл. час гроза туман 10/10 180 м
[St]
+16.9 +16.4 97 +15 +15 1004.1 1001.4
12 19.05 С 4 3000 м морось {гроза} 10/10 210 м
[St]
+17.4 +16.9 97 +17 +17 1004.2 1001.4 +16.6 +18.0 14
15 19.05 С 5 9000 м дымка {морось} 10/10 210 м
[St]
+17.0 +15.5 91 +16 +16 1005.2 1002.5
18 19.05 С 5 10 км {морось} 10/10 360 м
[Sc]
+16.0 +13.4 85 +15 +15 1005.1 1002.4 0.5
21 19.05 СЗ 4 10 км 9/9 360 м
[Sc]
+15.6 +12.9 84 +15 +15 1006.0 1003.3
00 20.05 СЗ 4 10 км {дождь} 10/5 300 м
[St As op]
+12.8 +9.5 80 +11 +11 1006.7 1004.0 +12.8 +18.1 0.0
03 20.05 С 4 10 км 10/10 300 м
[St]
+13.3 +10.5 83 +12 +12 1006.2 1003.4
06 20.05 СЗ 5 10 км 9/9 450 м
[Sc As op]
+12.5 +9.2 80 +10 +10 1007.0 1004.2
09 20.05 СЗ 5 10 км 10/10 600 м
[Sc]
+11.7 +8.3 80 +9 +9 1007.8 1005.0
12 20.05 С 4 8000 м морось 10/8 300 м
[Sc As op]
+11.0 +7.9 81 +9 +9 1009.4 1006.6 +10.9 +14.1 0.0
15 20.05 СЗ 3 10 км в посл. час морось 10/5 300 м
[Sc Ac As]
+10.7 +8.1 84 +9 +10 1010.7 1007.9
18 20.05 СВ 2 7000 м слабая морось 10/6 300 м
[St As op]
+10.7 +9.1 90 +10 +10 1009.6 1006.8 0.3
21 20.05 СЗ 2 8000 м слабая морось 10/10 360 м
[St]
+11.2 +7.7 79 +10 +10 1010.5 1007.7
00 21.05 С 4 8000 м слабая морось 10/10 300 м
[St]
+10.2 +10.2 100 +8 +8 1011.1 1008.2 +9.5 +11.8 2
03 21.05 С 4 10 км в посл. час морось 10/10 300 м
[St]
+10.8 +10.8 100 +8 +8 1010.7 1007.8
06 21.05 СЗ 2 10 км {морось} 8/8 360 м
[St]
+10.4 +10.4 100 +9 +9 1009.6 1006.8 0.0
09 21.05 СЗ 3 10 км в посл. час морось 10/10 360 м
[St]
+10.8 +10.8 100 +9 +9 1009.2 1006.4
12 21.05 СЗ 4 6000 м дымка {морось} 10/10 360 м
[St]
+11.5 +11.5 100 +9 +9 1010.3 1007.4 +10.2 +11.5 3
15 21.05 С 4 8000 м дымка {морось} 10/10 300 м
[St]
+11.9 +11.9 100 +10 +10 1010.3 1007.4
18 21.05 СЗ 4 10 км {морось} 3/3 450 м
[Sc]
+16.7 +9.7 63 +16 +18 1009.2 1006.4 0.0
21 21.05 СЗ 2 10 км 1/0
[Ac As]
+15.0 +9.4 69 +15 +15 1011.0 1008.2
00 22.05 С 1 10 км ясно +10.8 +9.6 92 +10 +10 1013.5 1010.7 +10.8 +17.2
03 22.05 СЗ 3 10 км ясно +11.8 +9.9 88 +10 +10 1015.1 1012.3
06 22.05 З 2 10 км 1/0
[Ci fib]
+10.5 +9.5 94 +9 +9 1015.7 1012.9
09 22.05 С 1 10 км 3/0
[Cs]
+8.5 +8.1 97 +8 +8 1016.3 1013.6
12 22.05 С 1 7000 м дымка {туман} 8/0
[Cs]
+10.7 +10.7 100 +10 +11 1018.2 1015.4 +8.5 +12.6 0.0
15 22.05 С 2 10 км 4/0
[Ci]
+20.0 +12.2 61 +23 +29 комфорт 1019.0 1016.2
18 22.05 СВ 2 10 км 6/0
[Ci]
+20.5 +9.8 50 +23 +26 комфорт 1017.9 1015.2
21 22.05 В 3 10 км 6/0
[Cs]
+15.2 +13.6 90 +14 +14 1018.5 1015.7
00 23.05 В 4 10 км 8/0
[Cs]
+14.5 +10.3 76 +13 +13 1019.2 1016.4 +10.7 +21.5
03 23.05 В 3 10 км 10/0
[Cs]
+14.5 +13.6 94 +14 +14 1020.8 1018.0
06 23.05 В 2 10 км 8/0
[Ac As Cs]
+13.4 +13.0 97 +13 +13 1020.2 1017.4
09 23.05 В 4 10 км 8/0
[Ac As Cs]
+13.1 +12.7 97 +11 +11 1019.5 1016.8
12 23.05 В 5 10 км 6/0
[Ac As Cs]
+14.7 +12.9 89 +13 +14 1019.0 1016.2 +12.5 +14.7
15 23.05 СВ 5 10 км 3/0
[Cs]
+18.0 +11.9 68 +18 +21 1018.5 1015.7
18 23.05 В 6 10 км ясно +19.0 +12.1 64 +20 +21 1015.4 1012.6
21 23.05 В 3 10 км ясно +15.8 +12.8 82 +15 +15 1014.5 1011.7
00 24.05 В 2 10 км ясно +12.7 +12.3 97 +12 +12 1014.2 1011.4 +12.7 +19.3
03 24.05 штиль 0 10 км в посл. час туман 5/0
[Ac As Cs]
+11.9 +11.7 99 +11 +11 1014.1 1011.3
06 24.05 штиль 0 10 км {туман} 9/0
[Ac As Cs]
+13.2 +13.0 99 +13 +13 1013.4 1010.6
09 24.05 В 1 10 км 9/0
[Ac As Cs]
+14.3 +14.1 99 +15 +15 1013.3 1010.5
12 24.05 С 2 10 км 8/0
[Ac As Cc]
+15.8 +14.9 94 +16 +16 1014.4 1011.6 +10.2 +16.0
15 24.05 Ю 2 9000 м дымка 10/10 600 м
[Cu Sc]
+17.6 +16.4 93 +18 +18 1014.2 1011.4
18 24.05 СВ 1 8000 м дымка 10/8 450 м
[Sc diur, vesp As op]
+17.5 +15.8 90 +19 +19 1012.8 1010.0
21 24.05 В 1 9000 м дымка 10/6 360 м
[St As op]
+17.2 +15.7 91 +18 +18 1012.8 1010.1
00 25.05 Ю 2 10 км 10/0 1500 м
[As op]
+16.1 +15.2 94 +16 +16 1012.9 1010.2 +15.8 +19.0
03 25.05 В 3 10 км 10/0 1500 м
[As op]
+15.9 +14.9 94 +16 +16 1013.0 1010.2
06 25.05 Ю 4 10 км 10/5 210 м
[St As op]
+15.2 +15.0 99 +14 +14 1012.1 1009.4
09 25.05 Ю 5 5000 м слабый дождь 10/0 1350 м
[As op]
+15.3 +15.3 100 +14 +14 1011.0 1008.2
12 25.05 ЮВ 8 1500 м дождь {морось} 10/6 90 м
[St As op]
+15.4 +15.2 99 +13 +13 1007.9 1005.2 +15.2 +16.1 4
15 25.05 Ю 7 2500 м слабый дождь туман 10/8 120 м
[St As op]
+16.6 +16.3 98 +15 +15 1009.3 1006.6

 

Местоположение метеостанции La Plata (Аргентина): широта -34.96 долгота -57.90 высота над уровнем моря 19 м.

В архиве по умолчанию представлена погода в La Plata за последнюю неделю. Архивные данные за месяц целиком и за предыдущие месяцы, начиная с января 2011 года, Вы можете получить, выбрав интересующий диапазон дат из раскрывающегося списка и нажав кнопку "Ввод!".

Внимание! Время в таблицах - всемирное. Для получения местного времени необходимо прибавить поправку, которая в La Plata равна -3 ч.

Смотрите также архив погоды в соседних городах и на ближайших метеорологических станциях:

Погода в Colonia (Уругвай) (57 км)
Погода в Ezeiza (Аргентина) (60 км)
Погода в Buenos Aires Aeropuerto (Аргентина) (64 км)
Погода в Buenos Aires (Аргентина) (68 км)
Погода в Melilla (Уругвай) (152 км)
Погода в Dolores (Аргентина) (152 км)
Погода в Prado (Уругвай) (156 км)
Погода в Las Flores (Аргентина) (164 км)
Погода в Carrasco (Уругвай) (174 км)
Погода в Florida (Уругвай) (183 км)

Пояснения к столбцам:

Ветер - указаны скорость ветра в м/с - средняя за 10 мин, порывы в срок и между сроками (в фигурных скобках) и направление, откуда дует ветер: С - северный, СВ - северо-восточный, В - восточный, ЮВ - юго-восточный, Ю - южный, ЮЗ - юго-западный, З - западный, СЗ - северо-западный.
Видимость - горизонтальная дальность видимости в метрах или километрах. При видимости от 1 до 10 км при отсутствии осадков обычно наблюдается дымка, при ухудшении видимости до 1 км и менее - туман. В сухую погоду видимость может ухудшаться дымом, пылью или мглою.
Явления - указаны атмосферные явления, наблюдавшиеся в срок или в последний час перед сроком; фигурными скобками обозначены явления, наблюдавшиеся между сроками (за 1-3 часа до срока); квадратными скобками обозначены град или гололедные отложения с указанием их диаметра в мм.
Облачность - указаны через наклонную черту общая и нижняя облачность в баллах и высота нижней границы облаков в метрах; квадратными скобками обозначены формы облаков: Ci - перистые, Cs - перисто-слоистые, Cc - перисто-кучевые, Ac - высококучевые, As - высокослоистые, Sc - слоисто-кучевые, Ns - слоисто-дождевые, Cu - кучевые, Cb - кучево-дождевые. Подробнее классификацию облаков см. в Атласе облаков (PDF).
T - Температура воздуха - температура, измеренная на высоте 2 м над землей.
Td - Температура точки росы - температура, при понижении до которой содержащийся в воздухе водяной пар достигнет насыщения.
f - Относительная влажность воздуха - влажноcть воздуха, измеренная на высоте 2 м над землей.
Te - Эффективная температура - температура, которую ощущает одетый по сезону человек в тени. Характеристика душности погоды. При расчете учитывается влияние влажности воздуха и скорости ветра на теплоощущения человека.
Tes - Эффективная температура на солнце - температура, которую ощущает человек, с поправкой на солнечный нагрев. Характеристика знойности погоды. Зависит от высоты солнца над горизонтом, облачности и скорости ветра. Ночью, в пасмурную погоду, а также при ветре 12 м/с и более поправка равна нулю.
P - Атмосферное давление - приведенное к уровню моря атмосферное давление.
Po - Атмосферное давление - измеренное на уровне метеостанции атмосферное давление.
Tmin - Минимальная температура - минимум температуры воздуха на высоте 2 м над землей.
Tmax - Максимальная температура - максимум температуры воздуха на высоте 2 м над землей.
R - Количество осадков - Количество выпавших осадков за период времени, мм. При наведении курсора мыши на число - период времени, за который выпало указанное количество осадков.
R24 - Количество осадков - Количество выпавших осадков за 24 часа, мм.
S - Снежный покров - Высота снежного покрова, см. При наведении курсора мыши на число - состояние снежного покрова и степень покрытия местности в баллах.